Weather History for KCWN - December, 2013

Change the Weather History Date:

Monday, December 2, 2013

  Actual Average (KIZG) Record (KIZG)
Temperature  
Mean Temperature 46 °F -  
Max Temperature 50 °F 38 °F 59 °F (1998)
Min Temperature 41 °F 19 °F 3 °F (2002)
Degree Days  
Heating Degree Days 20    
Moisture  
Dew Point 18 °F    
Average Humidity 33    
Maximum Humidity 42    
Minimum Humidity 27    
Precipitation  
Precipitation 0.00 in - - ()
Sea Level Pressure  
Sea Level Pressure 29.70 in    
Wind  
Wind Speed 5 mph (SW)    
Max Wind Speed 13 mph    
Max Gust Speed 16 mph    
Averages and records for this station are not official NWS values.
T = Trace of Precipitation, MM = Missing Value Source: NWS Daily Summary

Daily Weather History Graph

Daily Weather History Graph

Search for Another Location

Airport or City:

Trip Planner

Search our weather history database for the weather conditions in past years. The results will help you decide how hot, cold, wet, or windy it might be!

Date:

Astronomy

Dec. 02, 2013 Rise Set
Actual Time 7:00 AM EST 4:07 PM EST
Civil Twilight 6:28 AM EST 4:39 PM EST
Nautical Twilight 5:52 AM EST 5:15 PM EST
Astronomical Twilight 5:17 AM EST 5:50 PM EST
Moon 6:21 AM EST (12/2) 4:08 PM EST (12/2)
Length of Visible Light 10h 11m
Length of Day
9h 06m
Waning Crescent, 0% of the Moon is Illuminated
Dec 2
Waning Crescent
Dec 2
New
Dec 9
First Quarter
Dec 17
Full
Dec 25
Last Quarter

Hourly Weather History & Observations

Time (EST) Temp. Windchill Dew Point Humidity Pressure Visibility Wind Dir Wind Speed Gust Speed Precip Events Conditions
12:56 AM 43.9 °F 41.3 °F 18.0 °F 35% 29.82 in - SSW 4.6 mph - N/A   Clear
1:56 AM 43.3 °F 41.7 °F 19.4 °F 38% 29.83 in - SSW 3.5 mph - N/A   Partly Cloudy
2:56 AM 44.4 °F 42.0 °F 19.2 °F 37% 29.82 in - South 4.6 mph - N/A   Partly Cloudy
3:56 AM 43.7 °F 37.7 °F 20.1 °F 39% 29.83 in - WNW 11.5 mph - N/A   Clear
4:56 AM 41.9 °F 37.5 °F 19.9 °F 42% 29.84 in - NNW 6.9 mph - N/A   Clear
5:56 AM 42.1 °F 40.2 °F 19.8 °F 41% 29.82 in - Variable 3.5 mph - N/A   Clear
6:56 AM 42.8 °F 40.1 °F 19.8 °F 40% 29.80 in - SW 4.6 mph - N/A   Mostly Cloudy
7:56 AM 44.4 °F 38.6 °F 17.2 °F 34% 29.77 in - South 11.5 mph 16.1 mph N/A   Scattered Clouds
8:56 AM 43.9 °F 39.9 °F 17.1 °F 34% 29.75 in - SSW 6.9 mph - N/A   Clear
9:56 AM 45.7 °F - 17.2 °F 32% 29.75 in - Variable 2.3 mph - N/A   Clear
10:56 AM 45.1 °F 43.7 °F 18.5 °F 35% 29.75 in - WNW 3.5 mph - N/A   Mostly Cloudy
11:56 AM 45.7 °F 44.4 °F 18.7 °F 34% 29.73 in - NNW 3.5 mph - N/A   Partly Cloudy
12:56 PM 46.9 °F - 19.0 °F 33% 29.69 in - Variable 1.2 mph - N/A   Partly Cloudy
1:56 PM 48.6 °F - 19.0 °F 31% 29.65 in - Variable 4.6 mph - N/A   Clear
2:56 PM 50.2 °F - 16.9 °F 27% 29.61 in - SSE 3.5 mph - N/A   Clear
3:56 PM 50.2 °F - 18.7 °F 29% 29.63 in - Variable 3.5 mph - N/A   Scattered Clouds
4:56 PM 50.7 °F - 19.2 °F 29% 29.61 in - South 9.2 mph - N/A   Partly Cloudy
5:56 PM 49.3 °F - 18.0 °F 29% 29.61 in - South 5.8 mph - N/A   Clear
6:56 PM 47.8 °F - 16.9 °F 29% 29.60 in - SSW 4.6 mph - N/A   Clear
7:56 PM 48.0 °F - 16.5 °F 29% 29.57 in - South 12.7 mph - N/A   Clear
8:56 PM 47.8 °F - 16.0 °F 28% 29.55 in - SSW 4.6 mph - N/A   Mostly Cloudy
9:56 PM 44.6 °F 40.2 °F 16.7 °F 33% 29.57 in - West 8.1 mph - N/A   Mostly Cloudy
10:56 PM 46.0 °F 42.5 °F 16.0 °F 30% 29.53 in - SW 6.9 mph - N/A   Mostly Cloudy
11:56 PM 44.1 °F 41.5 °F 16.3 °F 33% 29.55 in - Variable 4.6 mph 13.8 mph N/A   Mostly Cloudy